Time[GMT],air_temperature[C](-3m),wind_speed[m/s](-4m),wind_gust[m/s](-4m),visibility[m](-3m),barometric_pressure[millibars](-3m),wind_2_direction[degrees_true](-4m),wind_2_gust[m/s](-4m),wind_2_percent_good[m/s](-4m),wind_2_speed[m/s](-4m),wind_direction[degrees_true](-4m)
2006-04-10 14:00,5.3,0.7,1.2,2964,1023.40,65.10,,,0.74,215.10
2006-04-10 15:00,5.2,3.3,3.8,2968,1023.46,29.77,,,3.30,179.77
2006-04-10 16:00,5.4,3.9,4.4,2968,1022.97,32.67,,,3.87,182.67
2006-04-10 17:00,5.8,3.6,4.2,2967,1022.53,15.22,,,3.63,165.22
2006-04-10 18:00,6.2,4.6,5.3,2968,1021.98,21.58,,,4.63,171.58
2006-04-10 19:00,6.5,5.4,6.4,2968,1021.43,13.93,,,5.44,163.93
2006-04-10 20:00,6.4,5.7,6.8,2874,1020.94,0.75,,,5.72,150.75
2006-04-10 21:00,6.6,6.3,7.2,2968,1020.63,8.52,,,6.33,158.52
2006-04-10 22:00,6.8,5.5,6.5,2801,1020.88,12.35,,,5.50,162.35
2006-04-10 23:00,6.4,7.1,8.2,2968,1021.37,23.86,,,7.07,173.86
2006-04-11 00:00,6.7,6.9,8.4,2966,1022.04,35.35,,,6.94,185.35
2006-04-11 01:00,6.4,6.3,7.3,2966,1022.66,34.15,,,6.26,184.15
2006-04-11 02:00,6.0,5.4,6.5,2967,1023.15,35.24,,,5.39,185.24
2006-04-11 03:00,5.5,3.0,4.0,2967,1023.70,40.18,,,3.01,190.18
2006-04-11 04:00,5.2,1.4,2.5,2967,1024.01,75.70,,,1.39,225.70
2006-04-11 05:00,5.2,1.1,1.7,2967,1024.56,75.30,,,1.09,225.30
2006-04-11 06:00,5.2,1.9,2.4,2958,1024.94,169.10,,,1.91,319.10
2006-04-11 07:00,5.2,1.5,2.0,2967,1025.24,171.80,,,1.54,321.80
2006-04-11 08:00,5.3,2.0,2.5,2967,1025.30,147.30,,,1.99,297.30
2006-04-11 09:00,5.2,0.9,1.4,2967,1025.67,174.60,,,0.93,324.60
2006-04-11 10:00,5.0,1.6,2.3,2967,1026.35,153.80,,,1.59,303.80
2006-04-11 11:00,6.0,1.1,1.8,2967,1027.15,158.70,,,1.13,308.70
2006-04-11 12:00,5.6,1.4,1.8,2964,1027.64,169.40,,,1.40,319.40
2006-04-11 13:00,6.1,0.8,1.5,2967,1028.01,175.70,,,0.84,325.70
2006-04-11 14:00,6.6,0.9,1.9,2957,1028.20,263.60,,,0.88,53.60
2006-04-11 15:00,6.5,1.8,2.2,2967,1028.32,338.10,,,1.77,128.10
2006-04-11 16:00,6.6,2.5,3.0,2967,1028.20,6.60,,,2.52,156.60
2006-04-11 17:00,7.2,3.8,4.3,2965,1027.83,10.15,,,3.81,160.15
2006-04-11 18:00,7.4,4.1,4.5,2966,1027.83,17.44,,,4.05,167.44
2006-04-11 19:00,7.5,4.6,5.1,2967,1027.34,9.19,,,4.62,159.19
2006-04-11 20:00,7.4,4.9,5.5,2967,1026.84,10.40,,,4.92,160.40
2006-04-11 21:00,7.8,4.0,4.7,2968,1026.97,8.60,,,3.99,158.60
2006-04-11 22:00,8.2,2.8,3.2,2968,1027.21,350.18,,,2.82,140.18
2006-04-11 23:00,6.6,2.7,3.2,2968,1027.71,40.59,,,2.67,190.59
2006-04-12 00:00,5.7,1.5,2.5,2966,1027.95,30.57,,,1.55,180.57
2006-04-12 01:00,5.7,2.1,2.4,2966,1028.14,19.10,,,2.06,169.10
2006-04-12 02:00,5.5,1.0,1.7,2967,1028.20,25.84,,,1.04,175.84
2006-04-12 03:00,5.2,0.1,0.6,2967,1028.45,188.70,,,0.11,338.70
2006-04-12 04:00,5.4,0.3,0.6,2967,1028.57,20.50,,,0.27,170.50
2006-04-12 05:00,5.2,1.2,1.4,2967,1028.57,3.38,,,1.17,153.38
2006-04-12 06:00,5.5,1.8,2.1,2944,1028.57,14.14,,,1.84,164.14
2006-04-12 07:00,5.6,2.0,2.4,2962,1028.75,359.84,,,2.02,149.84
2006-04-12 08:00,5.4,1.7,2.0,2941,1028.81,12.18,,,1.69,162.18
2006-04-12 09:00,5.3,1.1,1.5,2928,1028.88,62.20,,,1.13,212.20
2006-04-12 10:00,5.0,0.7,1.0,2819,1029.25,353.19,,,0.70,143.19
2006-04-12 11:00,6.0,2.1,2.4,2951,1029.56,21.75,,,2.11,171.75
2006-04-12 12:00,6.3,2.9,3.3,2965,1029.86,45.08,,,2.91,195.08
2006-04-12 13:00,6.7,3.1,3.8,2962,1029.86,31.94,,,3.12,181.94
2006-04-12 14:00,6.4,5.7,6.3,2959,1029.56,27.32,,,5.68,177.32
2006-04-12 15:00,6.3,6.1,7.0,2965,1029.19,20.36,,,6.13,170.36
2006-04-12 16:00,6.4,5.6,6.5,2961,1028.57,13.71,,,5.60,163.71
2006-04-12 17:00,6.8,6.5,7.5,2889,1028.08,0.64,,,6.46,150.64
2006-04-12 18:00,7.5,7.5,8.7,2965,1027.21,359.90,,,7.49,149.90
2006-04-12 19:00,7.9,8.8,10.4,2954,1026.04,356.08,,,8.78,146.08
2006-04-12 20:00,8.4,9.1,10.7,2763,1025.30,6.54,,,9.14,156.54
2006-04-12 21:00,8.2,9.3,10.7,2959,1024.69,6.19,,,9.29,156.19
2006-04-12 22:00,8.5,10.5,12.0,2962,1024.20,15.03,,,10.49,165.03
2006-04-12 23:00,8.3,10.1,11.2,2959,1023.77,14.71,,,10.07,164.71
2006-04-13 00:00,8.2,8.4,9.4,2966,1023.89,13.10,,,8.39,163.10
2006-04-13 01:00,7.9,7.7,8.7,2966,1023.89,13.97,,,7.68,163.97
2006-04-13 02:00,7.9,9.2,10.5,2966,1023.52,18.48,,,9.16,168.48
2006-04-13 04:00,7.6,8.1,9.3,2966,1022.10,18.47,,,8.10,168.47
2006-04-13 05:00,6.9,5.9,7.6,2828,1022.72,32.97,,,5.86,182.97
2006-04-13 06:00,7.2,6.9,7.9,2962,1021.43,25.64,,,6.89,175.64
2006-04-13 07:00,7.4,8.1,9.3,2963,1020.57,20.39,,,8.08,170.39
2006-04-13 08:00,7.3,7.5,8.6,2966,1019.77,14.50,,,7.51,164.50
2006-04-13 09:00,7.4,7.2,8.4,2965,1018.79,15.87,,,7.22,165.87
2006-04-13 10:00,7.5,8.3,9.6,2954,1017.93,19.59,,,8.32,169.59
2006-04-13 11:00,8.0,9.0,10.5,2880,1017.56,19.71,,,8.98,169.71
2006-04-13 12:00,7.7,9.0,10.5,2835,1017.25,23.63,,,9.02,173.63
2006-04-13 13:00,7.7,8.5,9.8,2832,1016.27,23.42,,,8.52,173.42
2006-04-13 14:00,7.0,7.5,9.3,2366,1015.96,27.95,,,7.47,177.95
2006-04-13 15:00,6.7,5.1,6.5,2650,1015.22,29.91,,,5.12,179.91
2006-04-13 16:00,6.6,4.2,4.9,2417,1014.37,35.58,,,4.18,185.58
2006-04-13 17:00,6.6,3.4,4.0,2633,1013.57,28.87,,,3.44,178.87
2006-04-13 18:00,7.6,4.4,5.1,2789,1012.96,27.10,,,4.37,177.10
2006-04-13 19:00,7.8,6.9,7.9,2850,1011.79,11.14,,,6.94,161.14
2006-04-13 20:00,8.3,7.7,9.1,2906,1010.93,10.97,,,7.74,160.97
2006-04-13 21:00,7.8,8.1,9.2,2775,1010.57,13.23,,,8.08,163.23
2006-04-13 22:00,8.3,7.3,8.1,2440,1010.44,17.06,,,7.32,167.06
2006-04-13 23:00,8.9,6.7,8.5,2394,1010.75,37.70,,,6.66,187.70
2006-04-14 00:00,8.4,6.5,8.1,2822,1011.30,38.39,,,6.51,188.39
2006-04-14 01:00,7.7,4.7,5.4,2814,1011.73,46.61,,,4.73,196.61
2006-04-14 02:00,8.9,4.0,4.7,2966,1012.34,110.30,,,4.04,260.30
2006-04-14 03:00,10.3,6.7,8.6,2966,1012.65,140.70,,,6.72,290.70
2006-04-14 04:00,10.3,7.2,9.1,2966,1012.77,157.80,,,7.25,307.80
2006-04-14 05:00,9.1,4.0,5.4,2966,1012.89,158.70,,,3.99,308.70
2006-04-14 06:00,8.9,3.4,4.3,2966,1012.83,154.40,,,3.44,304.40
2006-04-14 07:00,8.5,3.0,3.3,2966,1012.40,148.00,,,2.95,298.00
2006-04-14 08:00,7.8,1.3,2.3,2966,1012.10,187.70,,,1.33,337.70
2006-04-14 09:00,6.7,1.5,1.9,2966,1012.04,65.70,,,1.48,215.70
2006-04-14 10:00,6.8,3.2,4.1,2966,1012.10,88.40,,,3.16,238.40
2006-04-14 11:00,6.9,0.7,1.9,2968,1012.59,348.74,,,0.65,138.74
2006-04-14 12:00,7.7,0.3,0.6,2964,1012.96,302.90,,,0.31,92.90
2006-04-14 13:00,7.8,1.9,2.5,2967,1012.59,341.20,,,1.95,131.20
2006-04-14 14:00,7.1,2.1,2.5,2967,1012.47,26.20,,,2.09,176.20
2006-04-14 15:00,7.1,4.1,4.7,2966,1011.67,15.12,,,4.14,165.12
2006-04-14 16:00,7.7,4.9,5.5,2966,1010.44,14.42,,,4.88,164.42
2006-04-14 17:00,8.5,6.5,7.3,2967,1009.28,17.08,,,6.54,167.08
2006-04-14 18:00,8.7,6.9,8.4,2966,1008.42,8.26,,,6.86,158.26
2006-04-14 19:00,8.6,7.4,8.4,2967,1007.50,11.43,,,7.45,161.43
2006-04-14 20:00,8.7,7.9,9.5,2964,1006.77,9.62,,,7.95,159.62
2006-04-14 21:00,7.9,6.5,7.6,2949,1006.16,355.22,,,6.53,145.22
2006-04-14 22:00,7.9,7.6,9.1,2957,1005.67,359.46,,,7.62,149.46
2006-04-14 23:00,8.2,6.9,8.0,2966,1005.30,357.71,,,6.93,147.71
2006-04-15 00:00,8.6,7.0,7.8,2966,1005.06,357.64,,,7.00,147.64
2006-04-15 01:00,7.7,6.4,7.2,2966,1005.12,349.95,,,6.43,139.95
2006-04-15 02:00,7.3,6.5,7.3,2963,1004.26,355.03,,,6.46,145.03
2006-04-15 03:00,7.2,5.7,6.5,2918,1003.47,356.87,,,5.74,146.87
2006-04-15 04:00,7.2,4.6,5.7,2871,1002.55,4.13,,,4.63,154.13
2006-04-15 05:00,7.1,3.0,3.7,2763,1002.43,70.80,,,3.02,220.80
2006-04-15 06:00,6.8,1.0,2.0,2854,1001.88,164.30,,,1.01,314.30
2006-04-15 07:00,6.4,0.3,0.6,2787,1001.57,248.00,,,0.29,38.00
2006-04-15 08:00,6.2,1.0,1.4,2769,1001.15,325.10,,,1.03,115.10
2006-04-15 09:00,7.1,2.2,2.5, 252,1000.90,41.86,,,2.17,191.86
2006-04-15 10:00,6.7,1.9,2.4, 236,1000.23,43.78,,,1.85,193.78
2006-04-15 11:00,7.0,4.8,5.6, 697,999.56,0.62,,,4.76,150.62
2006-04-15 12:00,6.9,4.8,5.5, 329,998.89,4.39,,,4.78,154.39
2006-04-15 13:00,6.8,3.4,4.2, 359,998.52,353.36,,,3.40,143.36
2006-04-15 14:00,6.9,6.0,6.7, 543,998.52,7.23,,,5.98,157.23
2006-04-15 15:00,6.7,4.8,6.1, 314,997.42,356.30,,,4.75,146.30
2006-04-15 16:00,7.3,5.2,5.8, 464,996.63,165.52,,,5.18,165.52
2006-04-15 17:00,7.2,5.1,6.0, 158,996.08,155.95,,,5.13,155.95
2006-04-15 18:00,7.8,6.0,6.7, 292,995.35,146.27,,,5.97,146.27
2006-04-15 19:00,7.5,6.2,7.4, 631,994.68,145.22,,,6.22,145.22
2006-04-15 20:00,7.5,6.1,7.2,1705,993.88,154.21,,,6.11,154.21
2006-04-15 21:00,8.8,5.2,10.1,2000,994.74,19.90,,,5.21,19.90
2006-04-15 22:00,7.4,4.1,5.4,2023,994.68,47.80,,,4.05,47.80
2006-04-15 23:00,7.0,4.0,4.6, 873,995.59,15.90,,,4.02,15.90
2006-04-16 00:00,7.6,4.7,5.6,2276,996.99,17.30,,,4.71,17.30
2006-04-16 01:00,6.6,4.2,5.1,1138,997.79,45.60,,,4.20,45.60
2006-04-16 02:00,6.2,0.6,2.0, 225,998.46,239.90,,,0.57,239.90
2006-04-16 03:00,6.2,1.1,2.1, 245,998.82,243.40,,,1.12,243.40
2006-04-16 04:00,6.2,0.4,1.0, 333,998.64,313.20,,,0.41,313.20
2006-04-16 05:00,6.0,0.7,2.1, 576,998.76,54.10,,,0.66,54.10
2006-04-16 06:00,6.0,1.6,2.2, 330,998.95,179.08,,,1.61,179.08
2006-04-16 07:00,5.3,2.1,2.8, 350,998.95,199.07,,,2.09,199.07
2006-04-16 08:00,8.2,5.9,6.7,2966,999.31,291.90,,,5.95,291.90
2006-04-16 09:00,8.1,6.5,8.2,2966,999.74,288.40,,,6.53,288.40
2006-04-16 10:00,7.7,6.7,8.0,2966,1000.60,281.00,,,6.66,281.00
2006-04-16 11:00,7.2,7.7,9.6,1949,1001.15,282.40,,,7.68,282.40
2006-04-16 12:00,7.2,6.4,7.9,1759,1001.63,283.30,,,6.39,283.30
2006-04-16 13:00,7.5,5.1,6.2,2719,1001.76,289.30,,,5.05,289.30
2006-04-16 14:00,8.2,7.0,9.1,2953,1001.70,284.70,,,6.99,284.70
2006-04-16 15:00,8.4,5.7,8.1,2865,1001.45,292.80,,,5.70,292.80
2006-04-16 16:00,8.8,7.9,10.7,2968,1001.21,284.70,,,7.95,284.70
2006-04-16 17:00,8.2,8.5,11.2,2968,1001.70,295.50,,,8.54,295.50
2006-04-16 18:00,8.1,7.5,9.4,2968,1002.06,297.80,,,7.48,297.80
2006-04-16 19:00,8.1,8.7,11.6,2968,1002.06,309.40,,,8.72,309.40
2006-04-16 20:00,8.4,6.9,8.2,2968,1002.18,284.50,,,6.89,284.50
2006-04-16 21:00,8.4,5.9,7.1,2968,1002.43,320.00,,,5.95,320.00
2006-04-16 22:00,8.6,4.6,5.3,2968,1003.10,319.40,,,4.55,319.40
2006-04-16 23:00,8.5,5.7,6.8,2843,1003.96,345.70,,,5.68,345.70
2006-04-17 00:00,8.4,4.8,5.8,2966,1005.18,323.10,,,4.81,323.10
2006-04-17 01:00,8.3,6.8,8.0,2966,1006.22,331.60,,,6.84,331.60
2006-04-17 02:00,7.1,4.3,5.2,2966,1006.59,290.60,,,4.29,290.60
2006-04-17 03:00,6.8,4.0,4.7,2966,1006.46,282.90,,,4.03,282.90
2006-04-17 04:00,6.5,5.0,5.8,2966,1006.28,290.90,,,4.98,290.90
2006-04-17 05:00,6.2,5.0,6.0,2966,1006.28,308.80,,,5.04,308.80
2006-04-17 06:00,6.4,6.1,7.1,2966,1005.85,325.60,,,6.08,325.60
2006-04-17 07:00,6.4,6.4,8.2,2966,1005.85,322.50,,,6.41,322.50
2006-04-17 08:00,6.0,6.1,7.3,2966,1006.10,333.30,,,6.12,333.30
2006-04-17 09:00,5.8,5.8,6.9,2966,1006.46,337.00,,,5.84,337.00
2006-04-17 10:00,6.1,9.6,11.2,2814,1007.08,3.90,,,9.58,3.90
2006-04-17 11:00,6.1,7.6,9.0,2008,1007.81,352.70,,,7.56,352.70
2006-04-17 12:00,6.3,5.3,6.4,2968,1008.36,352.50,,,5.32,352.50
2006-04-17 13:00,6.6,3.2,4.1,2968,1008.48,323.90,,,3.24,323.90
2006-04-17 14:00,6.8,3.7,4.4,2964,1008.48,6.80,,,3.68,6.80
2006-04-17 15:00,7.0,2.3,3.3,2967,1008.36,21.50,,,2.30,21.50
2006-04-17 16:00,,,,,,81.50,,,2.82,
2006-04-17 17:00,7.3,2.3,2.7,2967,1007.26,88.80,,,2.27,88.80
2006-04-17 18:00,7.9,1.0,1.7,2967,1006.77,152.08,,,0.99,152.08
2006-04-17 19:00,7.1,3.5,4.2,2962,1006.40,185.95,,,3.48,185.95
2006-04-17 20:00,7.2,2.0,3.1,2967,1006.59,176.52,,,1.99,176.52
2006-04-17 21:00,8.3,6.8,8.7,2967,1007.08,23.30,,,6.82,23.30
2006-04-17 22:00,7.9,9.0,11.0,2966,1008.05,351.20,,,9.02,351.20
2006-04-17 23:00,8.0,6.7,8.4,2966,1008.48,338.10,,,6.72,338.10
2006-04-18 00:00,8.0,8.3,10.2,2960,1009.10,340.20,,,8.33,340.20
2006-04-18 01:00,7.9,7.5,9.1,2966,1009.59,331.60,,,7.47,331.60
2006-04-18 02:00,7.3,6.5,7.9,2901,1009.52,326.90,,,6.52,326.90
2006-04-18 03:00,7.8,7.0,8.9,2966,1009.59,346.60,,,7.04,346.60
2006-04-18 04:00,8.1,8.0,9.7,2966,1009.40,353.60,,,8.03,353.60
2006-04-18 05:00,8.2,8.0,9.8,2966,1009.34,346.40,,,7.97,346.40
2006-04-18 06:00,8.2,8.1,10.4,2966,1009.28,350.50,,,8.15,350.50
2006-04-18 07:00,8.2,6.5,7.8,2966,1009.03,339.80,,,6.46,339.80
2006-04-18 08:00,8.5,7.4,9.1,2966,1008.91,344.20,,,7.44,344.20
2006-04-18 09:00,8.6,7.6,9.1,2966,1008.91,345.60,,,7.61,345.60
2006-04-18 10:00,8.3,7.8,9.3,2966,1009.10,344.80,,,7.84,344.80
2006-04-18 11:00,7.9,5.7,6.5,2967,1009.77,336.90,,,5.69,336.90
2006-04-18 12:00,8.2,6.2,7.8,2966,1009.71,335.70,,,6.19,335.70
2006-04-18 13:00,8.9,7.2,9.0,2882,1009.46,351.10,,,7.25,351.10
2006-04-18 14:00,8.4,2.9,4.8,2883,1008.97,20.60,,,2.92,20.60
2006-04-18 15:00,8.7,1.3,1.8,2965,1008.73,355.40,,,1.31,355.40
2006-04-18 16:00,9.8,1.0,2.0,2967,1008.42,64.20,,,1.03,64.20
2006-04-18 17:00,9.7,1.8,2.4,2958,1007.81,65.90,,,1.76,65.90
2006-04-18 18:00,8.1,5.8,7.0,2967,1007.99,88.10,,,5.81,88.10
2006-04-18 19:00,7.3,5.8,6.9,2966,1008.18,79.80,,,5.77,79.80
2006-04-18 20:00,7.7,1.4,3.2,2967,1008.42,83.30,,,1.41,83.30
2006-04-18 21:00,7.6,0.4,1.4,2966,1008.97,43.90,,,0.43,43.90
2006-04-18 22:00,8.1,1.1,1.7,2967,1009.10,317.80,,,1.13,317.80
2006-04-18 23:00,7.4,1.3,2.4,2966,1009.52,210.90,,,1.33,210.90
2006-04-19 00:00,7.6,1.4,1.9,2966,1009.89,238.50,,,1.35,238.50
2006-04-19 01:00,8.3,2.3,3.1,2966,1010.38,265.80,,,2.27,265.80
2006-04-19 02:00,9.2,2.4,3.8,2966,1010.81,10.60,,,2.42,10.60
2006-04-19 03:00,8.7,8.1,10.0,2966,1011.12,14.50,,,8.08,14.50
2006-04-19 04:00,8.6,7.4,8.8,2966,1010.81,12.50,,,7.36,12.50
2006-04-19 05:00,8.4,6.8,8.0,2966,1010.44,3.60,,,6.80,3.60
2006-04-19 06:00,8.2,4.6,5.6,2966,1010.01,350.60,,,4.62,350.60
2006-04-19 07:00,8.5,6.0,7.8,2966,1009.59,339.60,,,6.03,339.60
2006-04-19 08:00,8.2,4.9,7.4,2966,1009.34,333.80,,,4.89,333.80
2006-04-19 09:00,8.4,7.9,9.6,2966,1009.28,1.90,,,7.86,1.90
2006-04-19 11:00,8.8,7.7,9.0,2066,1009.10,348.60,,,7.68,348.60
2006-04-19 12:00,8.3,4.4,6.2,2965,1008.85,329.20,,,4.37,329.20
2006-04-19 13:00,8.7,4.4,5.2,2939,1007.99,314.40,,,4.41,314.40
2006-04-19 14:00,9.7,5.9,7.6,2965,1007.14,330.80,,,5.92,330.80
2006-04-19 15:00,10.1,7.2,8.3,2962,1006.53,344.10,,,7.25,344.10
2006-04-19 16:00,11.6,7.6,9.2,2956,1005.24,330.50,,,7.57,330.50
2006-04-19 17:00,10.4,5.1,6.1,2967,1004.57,4.80,,,5.11,4.80
2006-04-19 18:00,11.2,4.7,7.2,2967,1002.98,320.30,,,4.74,320.30
2006-04-19 19:00,12.6,6.9,8.6,2967,1001.63,323.60,,,6.94,323.60
2006-04-19 20:00,13.9,7.8,10.5,2967,1000.90,329.40,,,7.82,329.40
2006-04-19 21:00,14.5,8.6,9.8,2966,1000.41,333.80,,,8.62,333.80
2006-04-19 22:00,15.5,10.1,12.7,2967,1000.60,334.00,,,10.13,334.00
2006-04-19 23:00,14.3,8.5,11.3,2966,1000.78,330.50,,,8.49,330.50
2006-04-20 00:00,13.3,6.9,8.4,2966,1001.21,329.10,,,6.87,329.10
2006-04-20 01:00,12.4,5.8,7.0,2966,1002.43,345.60,,,5.78,345.60
2006-04-20 02:00,12.6,5.9,6.5,2966,1002.73,347.00,,,5.92,347.00
2006-04-20 03:00,13.0,7.1,7.9,2966,1002.92,336.30,,,7.12,336.30
2006-04-20 04:00,12.2,6.2,7.6,2966,1003.22,336.10,,,6.24,336.10
2006-04-20 05:00,11.9,6.6,7.4,2966,1003.41,354.80,,,6.61,354.80
2006-04-20 06:00,10.8,5.7,6.5,2966,1003.77,359.30,,,5.73,359.30
2006-04-20 07:00,9.7,4.0,4.7,2966,1004.32,349.30,,,3.97,349.30
2006-04-20 08:00,9.6,3.8,4.2,2966,1004.38,329.00,,,3.78,329.00
2006-04-20 09:00,9.6,3.5,3.9,2966,1004.87,343.50,,,3.48,343.50
2006-04-20 10:00,8.6,2.1,2.6,2814,1006.10,13.90,,,2.12,13.90
2006-04-20 11:00,9.0,3.5,3.9,1524,1007.20,357.80,,,3.50,357.80
2006-04-20 12:00,8.2,2.5,3.0,1276,1008.36,14.70,,,2.45,14.70
2006-04-20 13:00,9.0,2.7,3.2,2802,1009.28,19.80,,,2.72,19.80
2006-04-20 14:00,8.8,3.4,3.9,2965,1010.08,61.10,,,3.44,61.10
2006-04-20 15:00,9.0,3.1,3.6,2964,1010.44,53.40,,,3.12,53.40
2006-04-20 16:00,9.1,4.6,5.2,2964,1010.75,68.50,,,4.64,68.50
2006-04-20 17:00,8.4,3.5,4.1,2956,1010.93,97.90,,,3.50,97.90
2006-04-20 18:00,8.5,4.6,5.6,2965,1011.18,122.40,,,4.62,122.40
2006-04-20 19:00,8.4,3.0,3.6,2915,1011.48,128.10,,,2.96,128.10
2006-04-20 20:00,8.4,2.2,2.8,2967,1012.34,219.20,,,2.17,219.20
2006-04-20 21:00,8.8,3.4,4.3,2967,1013.32,229.30,,,3.40,229.30
2006-04-20 22:00,8.8,3.5,4.3,2967,1014.06,228.40,,,3.50,228.40
2006-04-20 23:00,8.7,2.4,3.1,2967,1014.98,237.30,,,2.41,237.30
2006-04-21 00:00,8.9,0.8,2.0,2966,1016.70,225.80,,,0.85,225.80
2006-04-21 01:00,9.4,1.1,1.7,2966,1018.17,120.80,,,1.10,120.80
2006-04-21 02:00,8.6,3.2,3.6,2966,1019.40,80.80,,,3.19,80.80
2006-04-21 03:00,7.7,2.2,2.8,2966,1019.95,94.60,,,2.23,94.60
2006-04-21 04:00,7.6,6.6,7.5,2966,1020.69,68.90,,,6.58,68.90
2006-04-21 05:00,7.4,6.3,7.8,2966,1021.37,58.40,,,6.30,58.40
2006-04-21 06:00,7.5,6.9,8.0,2966,1021.74,46.90,,,6.85,46.90
2006-04-21 07:00,7.0,6.1,7.8,2966,1022.29,45.70,,,6.15,45.70
2006-04-21 08:00,6.6,6.7,8.0,2966,1023.03,46.10,,,6.75,46.10
2006-04-21 09:00,6.3,7.0,8.3,2966,1023.46,33.10,,,7.01,33.10
2006-04-21 10:00,6.2,7.5,8.9,2918,1024.50,25.50,,,7.53,25.50
2006-04-21 11:00,5.8,8.6,10.5,2967,1025.73,31.40,,,8.57,31.40
2006-04-21 12:00,5.5,10.1,11.6,2295,1026.35,22.10,,,10.05,22.10
2006-04-21 13:00,5.3,9.2,10.9,2527,1027.15,26.50,,,9.16,26.50
2006-04-21 14:00,5.2,7.4,8.7,2787,1027.64,25.00,,,7.42,25.00
2006-04-21 15:00,5.4,7.4,8.9,2799,1027.58,37.80,,,7.41,37.80
2006-04-21 16:00,5.9,4.8,6.0,2947,1027.64,57.10,,,4.84,57.10
2006-04-21 17:00,6.1,4.2,5.0,2953,1027.40,88.00,,,4.18,88.00
2006-04-21 18:00,6.2,3.4,4.4,2962,1026.97,116.50,,,3.38,116.50
2006-04-21 19:00,6.1,4.0,4.7,2909,1026.78,142.42,,,3.96,142.42
2006-04-21 20:00,6.3,4.7,5.4,2958,1026.60,158.95,,,4.70,158.95
2006-04-21 21:00,6.4,4.0,4.9,2967,1026.84,161.57,,,4.03,161.57
2006-04-21 22:00,6.6,4.5,5.5,2968,1026.91,178.83,,,4.54,178.83
2006-04-21 23:00,6.1,3.0,4.0,2966,1026.84,188.41,,,3.04,188.41
2006-04-22 00:00,6.1,2.9,3.5,2966,1027.15,202.38,,,2.89,202.38
2006-04-22 01:00,6.2,2.5,3.1,2966,1027.95,243.20,,,2.49,243.20
2006-04-22 02:00,6.3,2.2,2.7,2966,1028.26,227.00,,,2.15,227.00
2006-04-22 03:00,6.1,0.9,1.6,2966,1028.63,236.10,,,0.87,236.10
2006-04-22 04:00,6.1,1.6,2.0,2966,1028.57,99.40,,,1.59,99.40
2006-04-22 05:00,5.9,1.9,2.2,2966,1028.45,85.70,,,1.87,85.70
2006-04-22 06:00,5.8,1.3,2.0,2966,1028.45,63.00,,,1.28,63.00
2006-04-22 07:00,5.4,1.0,1.3,2966,1028.38,39.20,,,0.97,39.20
2006-04-22 08:00,5.2,1.2,1.6,2966,1028.69,303.70,,,1.19,303.70
2006-04-22 09:00,4.7,2.5,2.9,2966,1029.00,337.60,,,2.53,337.60
2006-04-22 10:00,5.3,2.7,3.2,2723,1029.12,20.90,,,2.72,20.90
2006-04-22 11:00,5.5,4.5,5.4,1307,1029.31,26.20,,,4.54,26.20
2006-04-22 12:00,6.0,5.8,6.9,2868,1029.74,51.70,,,5.82,51.70
2006-04-22 13:00,5.8,4.5,5.5,2959,1029.68,52.90,,,4.50,52.90
2006-04-22 14:00,5.8,3.4,4.2,2965,1030.36,43.40,,,3.41,43.40
2006-04-22 15:00,6.2,2.2,3.1,2965,1030.79,34.80,,,2.18,34.80
2006-04-22 16:00,6.0,1.8,2.4,2968,1030.11,56.70,,,1.80,56.70
2006-04-22 17:00,6.2,1.2,1.8,2968,1029.62,336.50,,,1.19,336.50
2006-04-22 18:00,6.2,1.6,2.2,2957,1029.00,357.80,,,1.59,357.80
2006-04-22 19:00,6.4,1.0,1.6,2966,1028.45,322.90,,,1.04,322.90
2006-04-22 20:00,6.5,1.0,1.6,2967,1027.83,328.20,,,1.03,328.20
2006-04-22 21:00,6.7,1.1,1.6,2967,1027.21,347.10,,,1.10,347.10
2006-04-22 22:00,6.8,0.5,0.7,2968,1026.60,0.30,,,0.46,0.30
2006-04-22 23:00,6.7,0.8,1.0,2966,1026.23,7.40,,,0.75,7.40
2006-04-23 00:00,6.5,0.2,0.5,2966,1026.29,14.30,,,0.19,14.30
2006-04-23 01:00,6.5,0.5,0.8,2966,1026.35,301.30,,,0.52,301.30
2006-04-23 02:00,6.8,2.8,3.4,2966,1026.47,262.90,,,2.77,262.90
2006-04-23 03:00,7.0,1.5,2.2,2966,1025.98,297.30,,,1.50,297.30
2006-04-23 04:00,7.0,1.6,1.9,2966,1025.92,350.50,,,1.61,350.50
2006-04-23 05:00,6.9,4.7,5.8,2966,1024.69,35.70,,,4.67,35.70
2006-04-23 06:00,6.9,2.9,4.2,2966,1024.63,46.60,,,2.89,46.60
2006-04-23 07:00,6.9,1.3,2.3,2966,1024.81,80.90,,,1.25,80.90
2006-04-23 08:00,6.8,3.5,4.2,2966,1023.95,50.60,,,3.45,50.60
2006-04-23 09:00,6.8,4.2,5.0,2966,1023.34,45.70,,,4.20,45.70
2006-04-23 10:00,6.8,3.6,4.5,2966,1023.34,43.40,,,3.62,43.40
2006-04-23 11:00,6.7,0.4,2.0,2966,1024.38,34.20,,,0.39,34.20
2006-04-23 12:00,6.5,1.9,2.3,2966,1024.44,28.30,,,1.89,28.30
2006-04-23 13:00,6.4,4.1,4.8,2957,1024.14,29.70,,,4.11,29.70
2006-04-23 14:00,6.3,4.9,5.7,2965,1024.07,27.70,,,4.91,27.70
2006-04-23 15:00,6.6,3.7,4.4,2966,1024.14,45.10,,,3.66,45.10
2006-04-23 16:00,6.6,4.7,5.6,2967,1023.21,61.00,,,4.72,61.00
2006-04-23 17:00,6.4,5.2,6.2,2967,1022.97,81.80,,,5.21,81.80
2006-04-23 18:00,6.4,5.2,6.1,2966,1022.29,74.50,,,5.23,74.50
2006-04-23 19:00,6.5,5.2,6.2,2966,1021.55,77.30,,,5.18,77.30
2006-04-23 20:00,6.7,5.3,6.6,2966,1021.43,86.20,,,5.34,86.20
2006-04-23 21:00,6.5,5.1,6.2,2572,1021.43,75.40,,,5.09,75.40
2006-04-23 22:00,5.9,6.5,7.4,2781,1021.12,82.20,,,6.47,82.20
2006-04-23 23:00,5.7,7.2,8.6,2913,1020.20,57.00,,,7.19,57.00
2006-04-24 00:00,5.8,8.4,10.1,2967,1019.09,54.30,,,8.39,54.30
2006-04-24 01:00,6.0,9.2,10.7,2967,1018.29,45.80,,,9.24,45.80
2006-04-24 02:00,6.1,8.8,10.7,2966,1017.50,45.90,,,8.75,45.90
2006-04-24 03:00,6.2,5.6,7.3,2893,1017.99,34.10,,,5.55,34.10
2006-04-24 04:00,5.8,7.5,9.6,2507,1016.88,53.50,,,7.54,53.50
2006-04-24 05:00,6.0,7.2,8.6,2892,1015.90,48.90,,,7.20,48.90
2006-04-24 06:00,6.0,5.7,7.2,1946,1014.92,57.00,,,5.72,57.00
2006-04-24 07:00,6.1,5.3,6.2,2400,1013.94,44.40,,,5.30,44.40
2006-04-24 08:00,6.1,6.5,7.8,2722,1013.20,37.00,,,6.54,37.00
2006-04-24 09:00,6.3,6.4,7.6,2687,1012.71,36.90,,,6.44,36.90
2006-04-24 10:00,5.9,6.9,8.1,2596,1012.40,25.60,,,6.90,25.60
2006-04-24 11:00,5.6,8.7,10.6,2417,1012.28,6.20,,,8.72,6.20
2006-04-24 12:00,5.5,9.3,11.9,2089,1011.91,3.90,,,9.29,3.90
2006-04-24 13:00,5.4,8.4,9.9,2274,1011.42,353.20,,,8.40,353.20
2006-04-24 14:00,5.5,7.9,9.5,2671,1010.93,357.70,,,7.90,357.70
2006-04-24 15:00,5.5,6.8,8.1,2672,1010.87,348.30,,,6.82,348.30
2006-04-24 16:00,6.1,5.8,7.5,2967,1010.01,338.60,,,5.76,338.60
2006-04-24 17:00,6.5,3.5,4.7,2966,1010.08,,,,,336.90
2006-04-24 18:00,6.5,2.5,3.9,2967,1010.01,321.40,,,2.47,321.40
2006-04-24 19:00,6.5,2.1,3.0,2967,1009.22,318.10,,,2.14,318.10
2006-04-24 20:00,6.8,1.5,2.4,2967,1008.24,354.60,,,1.45,354.60
2006-04-24 21:00,6.6,1.8,2.3,2962,1007.63,57.10,,,1.76,57.10
2006-04-24 23:00,6.6,0.6,1.2,2966,1007.08,89.40,,,0.58,89.40
2006-04-25 00:00,6.5,2.4,3.0,2966,1007.32,230.90,,,2.36,230.90
2006-04-25 01:00,6.7,3.7,4.3,2966,1007.75,215.10,,,3.68,215.10
2006-04-25 02:00,6.7,3.4,3.9,2942,1007.38,214.50,,,3.38,214.50
2006-04-25 03:00,6.5,2.3,2.7,2717,1006.40,208.40,,,2.26,208.40
2006-04-25 04:00,6.3,2.1,2.5,2333,1005.79,183.00,,,2.12,183.00
2006-04-25 05:00,6.6,3.4,4.0,2178,1005.42,209.80,,,3.39,209.80
2006-04-25 06:00,6.6,3.5,4.0,2282,1004.69,218.20,,,3.49,218.20
2006-04-25 07:00,6.9,5.0,5.7,2787,1004.38,241.20,,,5.02,241.20
2006-04-25 08:00,6.8,4.5,5.4,2966,1004.69,252.70,,,4.54,252.70
2006-04-25 09:00,6.9,3.7,4.4,2966,1004.81,257.10,,,3.67,257.10
2006-04-25 10:00,6.6,5.0,5.6,2674,1005.30,235.40,,,5.02,235.40
2006-04-25 11:00,6.7,3.7,4.2,1302,1005.48,236.00,,,3.74,236.00
2006-04-25 12:00,7.5,4.8,5.6,2961,1005.85,244.90,,,4.85,244.90
2006-04-25 13:00,7.3,2.4,3.8,2938,1005.55,239.30,,,2.42,239.30
2006-04-25 14:00,9.6,4.3,5.9,2937,1005.55,265.60,,,4.34,265.60
2006-04-25 15:00,9.6,3.8,4.6,2937,1004.26,255.20,,,3.82,255.20
2006-04-25 16:00,9.2,5.2,5.9,2967,1004.26,201.45,,,5.17,201.45
2006-04-25 17:00,9.0,6.0,7.2,2967,1003.22,184.40,,,5.96,184.40
2006-04-25 18:00,8.8,7.4,8.5,2936,1002.18,167.17,,,7.45,167.17
2006-04-25 19:00,9.1,7.8,9.2,2954,1001.27,176.12,,,7.85,176.12
2006-04-25 20:00,8.5,6.8,8.1,2945,1000.72,177.70,,,6.80,177.70
2006-04-25 21:00,11.2,4.9,6.1,2964,1001.02,251.20,,,4.88,251.20
2006-04-25 22:00,12.5,8.8,10.0,2966,1001.70,271.80,,,8.80,271.80
2006-04-25 23:00,9.5,9.4,11.7,2966,1003.22,300.80,,,9.41,300.80
2006-04-26 00:00,9.2,8.8,10.8,2966,1004.51,300.00,,,8.80,300.00
2006-04-26 01:00,8.2,11.7,14.0,2966,1006.10,298.10,,,11.69,298.10
2006-04-26 02:00,,,,,,288.90,,,10.77,
2006-04-26 03:00,6.2,8.4,10.3,2966,1008.97,307.20,,,8.43,307.20
2006-04-26 04:00,5.7,6.5,7.7,2967,1009.40,308.90,,,6.54,308.90
2006-04-26 05:00,5.4,6.6,8.1,2967,1009.77,,,,,311.70
2006-04-26 06:00,5.0,5.3,6.3,2967,1010.32,302.50,,,5.32,302.50
2006-04-26 07:00,4.7,5.0,6.6,2967,1010.87,306.00,,,4.96,306.00
2006-04-26 08:00,4.3,2.7,4.1,2967,1011.30,281.40,,,2.73,281.40